Location: Azul
(36.7830°S, 59.8500°W)
Time: 20:10:45
(UTC-03:00)

SRMSAT - Pass Details

Date: 30 October 2021
Orbit: 848 x 865 km, 20.0° (Epoch: 27 November)

Event Time Altitude Azimuth Distance (km) Brightness Sun altitude
Exits shadow 05:21:04 - 319° (NW) 2,871 ? -7.4°
Reaches altitude 10° 05:22:51 10° 332° (NNW) 2,480 ? -7.1°
Maximum altitude 05:25:57 14° 4° (N) 2,172 ? -6.5°
Drops below altitude 10° 05:29:03 10° 35° (NE) 2,475 ? -5.9°
Sets 05:32:50 0° 59° (ENE) 3,407 ? -5.2°
